Home   Weather   Nelson   Past weeks

Flag for Canada Past Weather in Nelson, British Columbia, Canada — Yesterday and Last 2 Weeks

Now
36 °F

Chilly.


Feels Like: 32 °F
Forecast: 27 / 38 °F
Wind: 5 mph from Northeast

Location: Nelson

Current Time: Jan 22, 2017 at 2:41:46 am

Latest Report: Jan 22, 2017 at 2:00 am


Visibility: N/A

Pressure: 29.81 "Hg (27.81 "Hg at 560m altitude)

Humidity: 81%

Dew Point: 30 °F

Location of NelsonLocation

Past Weather in Nelson — Graph

°F

Nelson Temperature Yesterday

Maximum temperature yesterday: 38 °F (at 2:00 pm)
Minimum temperature yesterday: 31 °F (at 12:00 am)
Average temperature yesterday: 35 °F

High & Low Weather Summary for the Past Weeks

 TemperatureHumidityPressure
High44 °F (Jan 20, 12:00 pm)100% (Jan 20, 4:00 am)30.74 "Hg (Jan 20, 4:00 am)
Low2 °F (Jan 11, 6:00 am)50% (Jan 11, 12:00 pm)29.36 "Hg (Jan 20, 5:00 pm)
Average24 °F82%30.05 "Hg
* Reported Jan 7 1:00 am — Jan 22 1:00 am, Nelson, Weather by CustomWeather, © 2017

Note: Actual official high and low records may vary slightly from our data, if they occured in-between our weather recording intervals... More about our weather records

Advertising

Nelson Weather History for the Previous 24 Hours

Scroll right to see more
 ConditionsComfort  
Time TempWeatherWind HumidityBarometerVisibility
1:00 am
Sun, Jan 22
36 °FChilly.6 mph80%29.80 "HgN/A
12:00 am36 °FChilly.5 mph81%29.80 "HgN/A
11:00 pm
Sat, Jan 21
36 °FChilly.6 mph81%29.79 "HgN/A
10:00 pm35 °FChilly.5 mph81%29.78 "HgN/A
9:00 pm35 °FChilly.6 mph81%29.77 "HgN/A
8:00 pm35 °FChilly.7 mph82%29.76 "HgN/A
7:00 pm35 °FChilly.7 mph83%29.74 "HgN/A
6:00 pm35 °FChilly.5 mph82%29.72 "HgN/A
5:00 pm35 °FChilly.5 mph79%29.70 "HgN/A
4:00 pm36 °FChilly.7 mph74%29.67 "HgN/A
3:00 pm38 °FChilly.5 mph64%29.64 "HgN/A
2:00 pm38 °FChilly.5 mph65%29.61 "HgN/A
1:00 pm38 °FChilly.3 mph64%29.58 "HgN/A
12:00 pm38 °FChilly.5 mph71%29.57 "HgN/A
11:00 am38 °FChilly.6 mph69%29.56 "HgN/A
10:00 am38 °FChilly.6 mph70%29.54 "HgN/A
9:00 am35 °FChilly.7 mph76%29.52 "HgN/A
8:00 am33 °FChilly.3 mph85%29.49 "HgN/A
7:00 am34 °FChilly.5 mph79%29.47 "HgN/A
6:00 am32 °FChilly.5 mph85%29.45 "HgN/A
5:00 am31 °FChilly.5 mph87%29.44 "HgN/A
4:00 am31 °FChilly.3 mph86%29.42 "HgN/A
3:00 am33 °FChilly.5 mph85%29.41 "HgN/A
2:00 am32 °FChilly.5 mph87%29.41 "HgN/A
Weather by CustomWeather, © 2017

See weather overviewHow to use our weather pages